Location: Newark
(47.9697°N, 1.5394°E)
Time: 10:00:40
(UTC+00:00)

N. Korean satellite - Visible Passes

Search period start: 19 November 2019 00:00
Search period end: 29 November 2019 00:00
Orbit: 456 x 506 km, 97.2° (Epoch: 18 November)

Date Brightness Start Highest point End Pass type
(mag) Time Alt. Az. Time Alt. Az. Time Alt. Az.
19 Nov 10.3 04:37:18 10° ENE 04:38:21 11° E 04:39:24 10° ESE visible
19 Nov 6.6 06:08:29 10° N 06:12:11 65° WNW 06:15:49 10° SSW visible
19 Nov 6.6 16:46:49 10° SSE 16:50:28 78° ENE 16:54:11 10° N visible
20 Nov 7.2 05:43:06 10° NNE 05:46:48 63° ESE 05:50:25 10° S visible
20 Nov 9.8 17:56:13 10° SW 17:58:43 17° W 18:01:14 10° NW visible
21 Nov 8.6 05:17:58 10° NNE 05:21:19 31° E 05:24:36 10° SSE visible
21 Nov 8.7 17:29:50 10° SSW 17:33:08 32° W 17:36:31 10° NNW visible
22 Nov 9.7 04:53:17 10° NE 04:55:44 17° E 04:58:11 10° SE visible
22 Nov 7.1 06:25:50 10° N 06:29:19 40° WNW 06:32:45 10° SW visible
22 Nov 7.1 17:04:01 10° S 17:07:40 64° W 17:11:23 10° NNW visible
23 Nov 6.5 06:00:17 10° N 06:04:00 80° WNW 06:07:38 10° SSW visible
23 Nov 6.6 16:38:39 10° SSE 16:42:17 63° ENE 16:45:58 10° N visible
23 Nov 10.2 18:14:52 10° WSW 18:16:05 11° W 18:17:18 10° WNW visible
24 Nov 7.6 05:34:58 10° NNE 05:38:34 49° E 05:42:06 10° S visible
24 Nov 9.5 17:47:36 10° SW 17:50:26 21° W 17:53:20 10° NW visible
25 Nov 9.0 05:09:57 10° NE 05:13:04 25° E 05:16:06 10° SSE visible
25 Nov 8.2 17:21:25 10° SSW 17:24:53 39° W 17:28:26 10° NNW visible
26 Nov 10.0 04:45:31 10° ENE 04:47:26 14° E 04:49:21 10° ESE visible
26 Nov 6.8 06:17:33 10° N 06:21:08 49° WNW 06:24:38 10° SSW visible
26 Nov 6.8 16:55:45 10° S 16:59:26 81° WSW 17:03:11 10° NNW visible
27 Nov 6.7 05:52:04 10° NNE 05:55:46 82° E 05:59:22 10° S visible
27 Nov 10.0 18:05:47 10° WSW 18:07:46 14° W 18:09:46 10° WNW visible
28 Nov 8.1 05:26:50 10° NNE 05:30:18 39° E 05:33:42 10° SSE visible
28 Nov 9.1 17:39:01 10° SSW 17:42:09 25° W 17:45:18 10° NW visible
